FLOCK 4A-4 (44082 NORAD) Tracking and Keplerian Element Data

This shows tracking and keplerian element data for the satellite.

Feedback or suggestion? Click here.




ElementValue
Catalog44082
NameFLOCK 4A-4
Epoch Orbit431
Epoch Day119.75403376
Epoch Year2019
RAAN180.0555
Inclination97.4611
Eccentricity0.0013886
Argument of Perigee172.646
Mean Anonmoly187.4982
Mean Motion15.21301022
Decay Rate1.312E-05
L11 44082U 19018E 19119.75403376 .00001312 00000-0 61678-4 0 9992
L22 44082 97.4611 180.0555 0013886 172.6460 187.4982 15.21301022 4318

Live tracking and technical data element details for FLOCK 4A-4 (NORAD 44082). FLOCK 4A-4 can be tracked NOW for your location showing map with azimuth and elevation plus other details from your city location.

Track the satellite on the map from your city or location and see movement details for azimuth, elevation, latitude, longitude, range, height, and movement on the map or in text.







IsCatalogInMostPopularTable: catalog: 44082, numindb: 19
Update: records affected: 1



GetName: 44082 FLOCK 4A-4

Hit Count: updated at: Fri, 19 Jul 2019 22:52:15 GMT